Overview Statistics Trail Chart Weather Telemetry Raw packets
 

This is the latest recevied weather packets stored in our database for station/object VU2EXP-13. If no packets are shown the sender has not sent any weather packets the latest 10 day(s).

<< 2 3 4 5 6 7 8 >>
Time Temp. Humidity Pressure Rain* Wind** Luminosity Snow
1788294570 28.89° C 69% 991.3 hPa - - - -
1788293654 28.89° C 68% 991.3 hPa - - - -
1788292754 28.89° C 68% 991.4 hPa - - - -
1788291853 28.89° C 68% 991.5 hPa - - - -
1788290953 28.89° C 67% 991.6 hPa - - - -
1788290053 29.44° C 66% 991.8 hPa - - - -
1788289153 29.44° C 66% 992 hPa - - - -
1788288254 29.44° C 66% 992.1 hPa - - - -
1788287353 29.44° C 65% 992.1 hPa - - - -
1788286453 29.44° C 64% 992 hPa - - - -
1788285553 29.44° C 63% 992.1 hPa - - - -
1788284652 29.44° C 63% 992.2 hPa - - - -
1788283765 30° C 62% 987.4 hPa - - - -
1788235166 30° C 62% 992.2 hPa - - - -
1788234266 29.44° C 63% 991.9 hPa - - - -
1788233366 29.44° C 65% 991.8 hPa - - - -
1788232466 29.44° C 67% 991.7 hPa - - - -
1788231565 28.89° C 69% 991.6 hPa - - - -
1788230666 28.33° C 71% 991.5 hPa - - - -
1788229766 28.33° C 71% 991.4 hPa - - - -
1788228866 28.33° C 72% 991.3 hPa - - - -
1788227965 28.33° C 72% 991.2 hPa - - - -
1788227065 28.33° C 70% 991.1 hPa - - - -
1788226165 28.33° C 70% 990.9 hPa - - - -
1788225265 28.33° C 69% 990.7 hPa - - - -

* Rain since midnight (hover to see other rain measurements)
** Current wind speed in m/s (hover to see current wind gust speed)